Location: Couloutre
(47.4081°N, 3.2259°E)
Time: 10:59:52
(UTC+00:00)

ATLAS 3B R/B - Pass Details

Date: 27 February 2020
Orbit: 1029 x 1166 km, 63.8° (Epoch: 12 March)

Event Time Altitude Azimuth Distance (km) Brightness Sun altitude
Rises 21:15:49 0° 320° (NW) 3,806 6.5 -37.7°
Reaches altitude 10° 21:18:24 10° 319° (NW) 2,861 5.6 -38.1°
Enters shadow 21:22:45 44° 316° (NW) 1,433 3.6 -38.7°
